Вернуться в каталог

STARLINK-38134

АктивенСвязьSSO
NORAD 100123·PAYLOAD·🇺🇸 United States

Запущен Jul 21, 2026 с Vandenberg Space Force Base

Loading…

Ближайшие Пролёты (ближайшие 24 часа)

TLE

СвежийSource: Space-Track

Эпоха: Sep 14, 2026, 00:59 UTC

1 A0123U 26166Y   26257.04138723  .00001279  00000-0  94440-5 0  9992
2 A0123  97.2844 275.1793 0001675  85.2384 274.9072 15.75187425  8593

Отслеживайте STARLINK-38134 в реальном времени с AllMySat

Download on the App Store